This is the latest recevied weather packets stored in our database for station/object SV2BZQ-2. If no packets are shown the sender has not sent any weather packets the latest 1 day(s).
| Time | Temp. | Humidity | Pressure | Rain* | Wind** | Luminosity | Snow |
|---|---|---|---|---|---|---|---|
| 1778052223 | 19.44° C | 70% | 1014.1 hPa | 0 mm | 0.45 m/s, 347° | 74 W/m² | - |
| 1778052056 | 19.44° C | 70% | 1014.1 hPa | 0 mm | 0.45 m/s, 233° | 72 W/m² | - |
| 1778051893 | 18.89° C | 71% | 1014.1 hPa | 0 mm | 0.45 m/s, 233° | 72 W/m² | - |
| 1778051676 | 18.89° C | 71% | 1014.1 hPa | 0 mm | 0.89 m/s, 259° | 74 W/m² | - |
| 1778051526 | 18.89° C | 71% | 1014.1 hPa | 0 mm | 0.89 m/s, 257° | 77 W/m² | - |
| 1778051259 | 18.89° C | 72% | 1014.1 hPa | 0 mm | 0.89 m/s, 294° | 568 W/m² | - |
| 1778051105 | 18.33° C | 72% | 1014.1 hPa | 0 mm | 0.89 m/s, 294° | 568 W/m² | - |
| 1778050976 | 18.33° C | 72% | 1014.2 hPa | 0 mm | 0.89 m/s, 310° | 591 W/m² | - |
| 1778050825 | 18.33° C | 73% | 1014.2 hPa | 0 mm | 0.89 m/s, 284° | 587 W/m² | - |
| 1778050714 | 18.33° C | 74% | 1014.1 hPa | 0 mm | 0.89 m/s, 288° | 585 W/m² | - |
| 1778050610 | 18.33° C | 74% | 1014.2 hPa | 0 mm | 0.89 m/s, 326° | 580 W/m² | - |
| 1778050517 | 18.33° C | 75% | 1014.2 hPa | 0 mm | 0.89 m/s, 307° | 575 W/m² | - |
| 1778050397 | 18.33° C | 75% | 1014.2 hPa | 0 mm | 0.89 m/s, 322° | 573 W/m² | - |
| 1778050262 | 17.78° C | 76% | 1014.2 hPa | 0 mm | 0.89 m/s, 355° | 568 W/m² | - |
| 1778050132 | 17.78° C | 76% | 1014.3 hPa | 0 mm | 0.89 m/s, 290° | 559 W/m² | - |
| 1778050042 | 17.78° C | 76% | 1014.3 hPa | 0 mm | 0.89 m/s, 290° | 489 W/m² | - |
| 1778049957 | 17.78° C | 77% | 1014.3 hPa | 0 mm | 0.89 m/s, 272° | 512 W/m² | - |
| 1778049817 | 17.78° C | 77% | 1014.3 hPa | 0 mm | 0.89 m/s, 309° | 547 W/m² | - |
| 1778049741 | 17.22° C | 78% | 1014.3 hPa | 0 mm | 0.89 m/s, 334° | 543 W/m² | - |
| 1778049609 | 17.22° C | 78% | 1014.3 hPa | 0 mm | 0.45 m/s, 17° | 536 W/m² | - |
| 1778049508 | 17.22° C | 79% | 1014.3 hPa | 0 mm | 0.45 m/s, 325° | 522 W/m² | - |
| 1778049416 | 17.22° C | 79% | 1014.4 hPa | 0 mm | 0.45 m/s, 262° | 517 W/m² | - |
| 1778049289 | 17.22° C | 80% | 1014.4 hPa | 0 mm | 0.45 m/s, 280° | 515 W/m² | - |
| 1778049213 | 16.67° C | 80% | 1014.4 hPa | 0 mm | 0.45 m/s, 322° | 506 W/m² | - |
| 1778049073 | 16.67° C | 80% | 1014.4 hPa | 0 mm | 0.89 m/s, 340° | 501 W/m² | - |
* Rain latest hour (hover to see other rain measurements)
** Current wind speed in m/s (hover to see current wind gust speed)